Regional Weather Roundup
Issued by NWS Green Bay, WI

Home | Current Version | Previous Version | Text Only | Print | Product List | Glossary On
Versions: 1 2 3 4 5 6 7 8 9 10 11 12 13 14 15 16 17 18 19 20 21 22 23 24 25 26 27 28 29 30 31 32 33 34 35 36 37 38 39 40 41 42 43 44 45 46 47 48 49 50
052
ASUS43 KGRB 101900
RWRGRB

NORTH-CENTRAL AND NORTHEAST WISCONSIN REGIONAL WEATHER ROUNDUP
NATIONAL WEATHER SERVICE GREEN BAY WI
100 PM CST WED FEB 10 2016

WIZ005-009-010>012-018-019-102000-
NORTH CENTRAL WISCONSIN

CITY           SKY/WX    TMP DP  RH WIND       PRES   REMARKS
IRONWOOD       CLOUDY     9   0  66 N7        30.01F WCI  -3
MANITOWISH WTR NOT AVBL
ARBOR VITAE    NOT AVBL
EAGLE RIVER    NOT AVBL
LAND O LAKES   NOT AVBL
RHINELANDER    MIX PCPN   8  -6  52 N8G17     29.96F WCI  -4
PHILLIPS       NOT AVBL
ANTIGO         NOT AVBL
TOMAHAWK       NOT AVBL
MERRILL        NOT AVBL
$$

WIZ013-073-102000-
NORTHEAST WISCONSIN

CITY           SKY/WX    TMP DP  RH WIND       PRES   REMARKS
IRON MOUNTAIN  PTSUNNY    9  -5  53 N15G23    29.96R WCI  -8
MARINETTE      MOSUNNY   14  -6  41 N15G21    29.98S WCI  -1
$$

WIZ017-030-035>037-045-102000-
CENTRAL WISCONSIN

CITY           SKY/WX    TMP DP  RH WIND       PRES   REMARKS
MEDFORD        NOT AVBL
WAUSAU         PTSUNNY   11  -3  53 NW12G17   29.99S WCI  -3
MOSINEE        PTSUNNY   10  -2  56 N6        30.01S WCI   1
MARSHFIELD     PTSUNNY    9  -4  55 NW8       30.00F WCI  -3
WISC RAPIDS    MOSUNNY   10  -4  53 N13       30.04S WCI  -5
STEVENS POINT  NOT AVBL
WAUPACA        NOT AVBL
SHAWANO        NOT AVBL
CLINTONVILLE   NOT AVBL
WAUTOMA        NOT AVBL
$$

WIZ038-039-048-051-102000-
FOX VALLEY

CITY           SKY/WX    TMP DP  RH WIND       PRES   REMARKS
NWS GREEN BAY  SUNNY     11  -4  51 NW14G22   30.01S WCI  -5
APPLETON       NOT AVBL
OSHKOSH        PTSUNNY   12  -3  51 NW9       30.01S WCI   0
FOND DU LAC    PTSUNNY   12  -2  53 N13       30.01S WCI  -3
$$

WIZ022-050-052-102000-
EAST CENTRAL WISCONSIN

CITY           SKY/WX    TMP DP  RH WIND       PRES   REMARKS
EPHRAIM        NOT AVBL
STURGEON BAY   SUNNY     12  -6  44 NW15G21   29.99S WCI  -4
MANITOWOC      NOT AVBL
SHEBOYGAN      SUNNY     12  -3  51 NW13      30.00R WCI  -3
$$

LMZ563-521-522-541>543-102000-
LAKESHORE

STATION/POSITION TIME  TEMP    WIND        PRES    VSBY  WAVE
                       AIR SEA DIR/SP/G                  HT/PER
                 (UTC) (F)     (DEG/KT/KT) (MB)    (MI)  (FT/S)
SHEBOYGAN LKSHOR 1800   11     320/ 13/ 16 1017.5F
KEWAUNEE LKSHORE 1800   11     310/ 13/ 18 1014.9F
CHAMBERS ISLAND  1800   15     310/ 15/ 19 1015.2S
MENOMINEE LKSHOR 1800   12     310/ 14     1014.4F
$$




USA.gov is the U.S. government's official web portal to all federal, state and local government web resources and services.